Starlink 31500

operational
NORAD ID: 59305 Int'l Des: 2024-056 Owner: SPXS Country: US Constellation: starlink
LEOCIRCULAR

About Starlink 31500

Description loading...

Live Position

Loading 3D Globe...

Upcoming Passes

Altitude History

Altitude vs Time

uPlot chart will show altitude changes over time

Two-Line Element Set

1 59305U 24056K 25259.04262562 .00015659 00000-0 57684-3 0 9998
2 59305 43.0014 137.0812 0001449 268.0596 92.0090 15.27608380 84442
Epoch: Sep 16, 2025 • Age: 17 hours

Current Status

Altitude 495.2 km
Velocity 7.62 km/s
Sub-Earth Point -43.04°S, 133.76°E
Launch Date Mar 24, 2024
Age 1.4 years
Type internet

Technical Details

Classification Payload
Mass 730.00 kg
Dry Mass 700.00 kg
Total Mass 730.00 kg
Length 0.30 m
Diameter 4.10 m
Span 29.00 m
Shape Box + pan
Manufacturer SPXS
Bus Type Starlink V2M
Phase Status In Orbit
Owner/State SPXS/US

Large Constellations

Loading constellations...